period_start,C,m1,H,J0,J1,J2,J3,J4,J5,JA,JB,JC,JD,JJ,JK,JN,#
2017-05-07 00:02:52,0.01,1.21,0.00,21.76,25.38,29.10,14.55,48.56,1014.69,2037.09,3000.91,2780.02,3175.38,599.81,597.25,37.82,0000 0000 0000 0000 000000
2017-05-07 00:07:53,0.03,1.21,0.00,21.77,25.39,29.09,14.59,48.65,1014.68,2037.10,3000.08,2779.88,3174.94,600.23,597.55,37.87,0000 0000 0000 0000 000000
2017-05-07 00:12:54,0.05,1.22,0.00,21.78,25.40,29.07,14.59,48.56,1014.67,2037.05,2999.53,2779.15,3174.23,599.89,597.24,37.92,0000 0000 0000 0000 000000
2017-05-07 00:17:55,0.01,1.22,0.00,21.78,25.41,29.17,14.50,48.59,1014.66,2037.02,2998.86,2778.98,3173.91,599.82,597.30,37.97,0000 0000 0000 0000 000000
2017-05-07 00:22:57,0.05,1.22,0.00,21.80,25.42,29.20,14.59,48.65,1014.66,2037.01,2998.05,2778.35,3173.10,600.31,597.62,38.02,0000 0000 0000 0000 000000
2017-05-07 00:27:58,0.03,1.22,0.00,21.85,25.42,29.23,14.53,48.54,1014.66,2037.00,2997.31,2778.00,3172.72,599.76,597.01,38.07,0000 0000 0000 0000 000000
2017-05-07 00:32:59,0.03,1.22,0.00,21.84,25.45,29.27,14.53,48.54,1014.66,2037.00,2996.81,2777.62,3172.03,600.04,597.21,38.13,0000 0000 0000 0000 000000
2017-05-07 00:38:01,0.03,1.22,0.00,21.85,25.45,29.25,14.61,48.56,1014.66,2037.00,2996.01,2777.02,3171.57,599.97,597.28,38.18,0000 0000 0000 0000 000000
2017-05-07 00:43:02,0.03,1.23,0.00,21.90,25.47,29.26,14.64,48.65,1014.66,2037.00,2995.27,2776.78,3171.01,600.44,597.48,38.23,0000 0000 0000 0000 000000
2017-05-07 00:48:04,0.04,1.23,0.00,21.92,25.49,29.23,14.58,48.48,1014.67,2037.00,2994.75,2776.09,3170.56,600.07,597.08,38.28,0000 0000 0000 0000 000000
2017-05-07 00:53:05,0.01,1.23,0.00,21.93,25.50,29.31,14.72,48.70,1014.67,2037.00,2994.02,2775.97,3169.99,600.22,597.16,38.33,0000 0000 0000 0000 000000
2017-05-07 00:58:06,0.05,1.23,0.00,21.95,25.52,29.34,14.58,48.58,1014.67,2037.00,2993.33,2775.37,3169.35,600.15,597.14,38.38,0000 0000 0000 0000 000000
2017-05-07 01:03:08,0.02,1.23,0.00,21.98,25.54,29.34,14.58,48.68,1014.67,2036.99,2992.68,2774.99,3168.87,600.26,597.18,38.43,0000 0000 0000 0000 000000
2017-05-07 01:08:09,0.05,1.24,0.00,22.02,25.56,29.44,14.60,48.74,1014.67,2036.97,2991.93,2774.22,3168.07,600.12,597.03,38.48,0000 0000 0000 0000 000000
2017-05-07 01:13:11,0.02,1.24,0.00,22.05,25.57,29.48,14.59,48.65,1014.66,2036.91,2991.09,2773.98,3167.58,599.91,596.71,38.53,0000 0000 0000 0000 000000
2017-05-07 01:18:12,0.04,1.24,0.00,22.06,25.60,29.48,14.57,48.65,1014.66,2036.83,2990.30,2773.26,3166.98,600.05,596.81,38.58,0000 0000 0000 0000 000000
2017-05-07 01:23:13,-0.01,1.24,0.00,22.08,25.62,29.53,14.63,48.67,1014.66,2036.52,2989.67,2772.98,3166.22,600.26,597.01,38.63,0000 0000 0000 0000 000000
2017-05-07 01:28:14,0.02,1.24,0.00,22.11,25.64,29.54,14.56,48.59,1014.66,2036.16,2988.90,2772.22,3165.61,599.74,596.44,38.68,0000 0000 0000 0000 000000
2017-05-07 01:33:16,0.02,1.24,0.00,22.16,25.66,29.62,14.63,48.77,1014.63,2036.04,2988.06,2771.90,3164.98,600.31,596.68,38.73,0000 0000 0000 0000 000000
2017-05-07 01:38:17,0.06,1.24,0.00,22.18,25.69,29.67,14.62,48.73,1014.47,2036.00,2987.18,2771.12,3164.16,600.38,596.91,38.78,0000 0000 0000 0000 000000
2017-05-07 01:43:18,0.02,1.24,0.00,22.20,25.71,29.69,14.54,48.71,1014.27,2036.00,2986.58,2770.95,3163.79,599.89,596.15,38.83,0000 0000 0000 0000 000000
2017-05-07 01:48:19,0.05,1.25,0.00,22.22,25.74,29.71,14.59,48.57,1014.21,2036.00,2985.72,2770.15,3163.04,600.26,596.34,38.88,0000 0000 0000 0000 000000
2017-05-07 01:53:21,0.02,1.25,0.00,22.25,25.76,29.73,14.56,48.66,1014.23,2036.00,2985.00,2769.90,3162.33,600.10,596.33,38.94,0000 0000 0000 0000 000000
2017-05-07 01:58:22,0.05,1.25,0.00,22.29,25.79,29.74,14.60,48.81,1014.22,2036.00,2984.16,2769.11,3161.81,600.06,596.11,38.99,0000 0000 0000 0000 000000
2017-05-07 02:03:23,0.03,1.25,0.00,22.33,25.81,29.77,14.55,48.60,1014.19,2035.99,2983.42,2768.86,3161.05,599.90,595.82,39.04,0000 0000 0000 0000 000000
2017-05-07 02:08:24,0.05,1.26,0.00,22.37,25.84,29.81,14.58,48.67,1014.18,2035.96,2982.64,2768.08,3160.39,600.17,595.97,39.09,0000 0000 0000 0000 000000
2017-05-07 02:13:25,0.00,1.26,0.00,22.38,25.86,29.81,14.58,48.82,1014.18,2035.81,2981.84,2767.76,3159.83,600.06,595.88,39.14,0000 0000 0000 0000 000000
2017-05-07 02:18:27,0.00,1.26,0.00,22.40,25.90,29.89,14.59,48.81,1014.19,2035.36,2981.03,2767.03,3159.05,600.35,596.20,39.19,0000 0000 0000 0000 000000
2017-05-07 02:23:28,0.03,1.26,0.00,22.47,25.92,29.82,14.54,48.81,1014.18,2035.05,2980.16,2766.55,3158.27,600.02,595.78,39.24,0000 0000 0000 0000 000000
2017-05-07 02:28:30,0.03,1.26,0.00,22.50,25.95,29.88,14.52,48.74,1014.18,2035.01,2979.40,2766.00,3157.73,600.21,595.80,39.29,0000 0000 0000 0000 000000
2017-05-07 02:33:31,0.04,1.26,0.00,22.53,25.98,29.89,14.55,48.73,1014.18,2035.00,2978.72,2765.51,3157.02,600.25,595.87,39.34,0000 0000 0000 0000 000000
2017-05-07 02:38:32,0.03,1.26,0.00,22.55,26.01,29.92,14.58,48.78,1014.18,2035.00,2977.90,2765.00,3156.33,600.35,595.74,39.39,0000 0000 0000 0000 000000
2017-05-07 02:43:33,0.05,1.27,0.00,22.58,26.04,29.94,14.52,48.71,1014.18,2035.00,2977.04,2764.30,3155.71,600.27,595.75,39.44,0000 0000 0000 0000 000000
2017-05-07 02:48:34,0.02,1.27,0.00,22.61,26.06,29.96,14.50,48.71,1014.17,2034.96,2976.18,2763.96,3155.01,599.73,595.13,39.49,0000 0000 0000 0000 000000
2017-05-07 02:53:36,0.05,1.27,0.00,22.65,26.10,30.01,14.43,48.66,1014.17,2034.89,2975.41,2763.15,3154.20,599.94,595.35,39.54,0000 0000 0000 0000 000000
2017-05-07 02:58:37,-0.01,1.27,0.00,22.71,26.12,30.03,14.52,48.48,1014.17,2034.44,2974.57,2762.83,3153.68,600.06,595.24,39.59,0000 0000 0000 0000 000000
2017-05-07 03:03:38,0.01,1.27,0.00,22.75,26.16,30.02,14.45,48.61,1014.17,2034.10,2973.74,2762.06,3152.99,599.82,595.10,39.64,0000 0000 0000 0000 000000
2017-05-07 03:08:39,0.04,1.27,0.00,22.75,26.18,30.09,14.54,48.79,1014.14,2034.01,2972.95,2761.71,3152.15,600.14,595.30,39.69,0000 0000 0000 0000 000000
2017-05-07 03:13:41,0.04,1.27,0.00,22.81,26.21,30.11,14.58,48.59,1014.09,2034.00,2972.10,2761.05,3151.73,600.45,595.29,39.74,0000 0000 0000 0000 000000
2017-05-07 03:18:42,0.04,1.28,0.00,22.83,26.24,30.15,14.54,48.68,1014.12,2034.00,2971.36,2760.67,3150.97,600.05,594.96,39.79,0000 0000 0000 0000 000000
2017-05-07 03:23:44,0.04,1.28,0.00,23.05,26.28,30.12,14.54,48.53,1014.08,2034.00,2970.57,2760.01,3150.14,600.46,594.91,39.84,0000 0000 0000 0000 000000
2017-05-07 03:28:45,0.05,1.28,0.00,23.19,26.32,30.07,14.47,48.58,1014.11,2033.97,2969.71,2759.40,3149.46,600.13,594.18,39.90,0000 0000 0000 0000 000000
2017-05-07 03:33:46,0.01,1.28,0.00,23.37,26.37,30.11,14.50,48.66,1014.13,2033.68,2968.77,2758.82,3148.63,600.04,593.92,39.95,0000 0000 0000 0000 000000
2017-05-07 03:38:47,-0.01,1.28,0.00,23.21,26.41,30.17,14.51,48.54,1014.16,2033.22,2967.92,2758.05,3147.94,599.96,593.91,40.00,0000 0000 0000 0000 000000
2017-05-07 03:43:48,0.05,1.28,0.00,23.07,26.44,30.21,14.46,48.69,1014.15,2033.03,2966.96,2757.55,3147.10,599.56,594.02,40.05,0000 0000 0000 0000 000000
2017-05-07 03:48:50,0.03,1.29,0.00,23.06,26.47,30.30,14.54,48.67,1014.16,2033.00,2966.04,2757.00,3146.34,600.38,594.69,40.10,0000 0000 0000 0000 000000
2017-05-07 03:53:51,0.05,1.29,0.00,23.04,26.48,30.46,14.64,48.63,1014.17,2033.00,2965.17,2756.39,3145.76,600.30,594.76,40.15,0000 0000 0000 0000 000000
2017-05-07 03:58:52,0.03,1.29,0.00,23.00,26.50,30.48,14.50,48.53,1014.17,2033.00,2964.35,2755.97,3145.00,599.89,594.51,40.20,0000 0000 0000 0000 000000
2017-05-07 04:03:53,0.06,1.29,0.00,23.07,26.52,30.35,14.53,48.56,1014.17,2032.98,2963.47,2755.24,3144.26,600.40,594.82,40.25,0000 0000 0000 0000 000000
2017-05-07 04:08:54,0.02,1.29,0.00,23.34,26.54,30.33,14.50,48.59,1014.17,2032.96,2962.71,2754.93,3143.66,600.73,594.62,40.30,0000 0000 0000 0000 000000
2017-05-07 04:13:56,0.03,1.30,0.00,23.34,26.56,30.25,14.51,48.52,1014.17,2032.89,2961.96,2754.16,3142.98,600.01,594.06,40.35,0000 0000 0000 0000 000000
2017-05-07 04:18:57,-0.00,1.30,0.00,23.62,26.59,30.26,14.44,48.60,1014.18,2032.43,2961.09,2753.81,3142.15,599.92,593.38,40.40,0000 0000 0000 0000 000000
2017-05-07 04:23:58,0.03,1.30,0.00,23.83,26.62,30.30,14.47,48.62,1014.18,2032.15,2960.19,2753.05,3141.54,600.07,593.01,40.45,0000 0000 0000 0000 000000
2017-05-07 04:29:00,0.03,1.30,0.00,23.83,26.65,30.33,14.42,48.58,1014.18,2032.04,2959.44,2752.75,3140.93,599.98,593.02,40.50,0000 0000 0000 0000 000000
2017-05-07 04:34:01,0.04,1.30,0.00,23.50,26.67,30.34,14.48,48.58,1014.17,2032.02,2958.61,2752.04,3140.08,600.00,593.56,40.55,0000 0000 0000 0000 000000
2017-05-07 04:39:02,0.04,1.30,0.00,23.30,26.68,30.34,14.45,48.57,1014.12,2032.00,2957.63,2751.71,3139.35,599.91,593.87,40.60,0000 0000 0000 0000 000000
2017-05-07 04:44:04,0.02,1.31,0.00,23.25,26.70,30.51,14.49,48.67,1014.08,2032.00,2956.87,2751.05,3138.95,599.89,593.97,40.65,0000 0000 0000 0000 000000
2017-05-07 04:49:05,0.03,1.31,0.00,23.23,26.70,30.51,14.38,48.66,1014.08,2032.00,2956.01,2750.97,3138.12,599.74,593.79,40.70,0000 0000 0000 0000 000000
2017-05-07 04:54:06,0.05,1.31,0.00,23.23,26.70,30.45,14.46,48.60,1013.98,2032.00,2955.09,2750.20,3137.55,599.87,593.90,40.75,0000 0000 0000 0000 000000
2017-05-07 04:59:08,0.02,1.31,0.00,23.39,26.70,30.38,14.50,48.63,1013.88,2032.00,2954.34,2749.99,3137.00,599.99,593.70,40.81,0000 0000 0000 0000 000000
2017-05-07 05:04:09,0.05,1.31,0.00,23.51,26.71,30.30,14.51,48.67,1013.79,2032.00,2953.63,2749.50,3136.28,599.87,593.26,40.86,0000 0000 0000 0000 000000
2017-05-07 05:09:10,0.03,1.32,0.00,23.50,26.73,30.26,14.45,48.67,1013.76,2031.99,2952.77,2749.00,3135.63,600.07,593.42,40.91,0000 0000 0000 0000 000000
2017-05-07 05:14:11,0.05,1.32,0.00,23.81,26.75,30.30,14.54,48.77,1013.71,2031.99,2951.92,2748.39,3135.01,600.29,592.99,40.96,0000 0000 0000 0000 000000
2017-05-07 05:19:13,0.03,1.32,0.00,23.97,26.77,30.35,14.38,48.72,1013.70,2031.97,2951.01,2747.94,3134.32,599.94,592.33,41.01,0000 0000 0000 0000 000000
2017-05-07 05:24:14,0.05,1.32,0.00,24.03,26.80,30.37,14.40,48.62,1013.70,2031.89,2950.09,2747.17,3133.79,599.79,592.08,41.06,0000 0000 0000 0000 000000
2017-05-07 05:29:15,0.02,1.32,0.00,24.07,26.81,30.38,14.35,48.76,1013.70,2031.79,2949.33,2746.97,3133.03,599.81,591.91,41.11,0000 0000 0000 0000 000000
2017-05-07 05:34:17,0.01,1.32,0.00,24.19,26.82,30.40,14.43,48.72,1013.70,2031.46,2948.64,2746.30,3132.37,599.70,591.65,41.16,0000 0000 0000 0000 000000
2017-05-07 05:39:18,0.01,1.33,0.00,24.20,26.84,30.40,14.36,48.83,1013.71,2031.30,2947.97,2746.00,3131.97,599.81,591.82,41.21,0000 0000 0000 0000 000000
2017-05-07 05:44:19,0.04,1.33,0.00,24.24,26.85,30.38,14.27,48.56,1013.71,2031.15,2947.11,2745.49,3131.16,599.83,591.78,41.26,0000 0000 0000 0000 000000
2017-05-07 05:49:20,0.02,1.33,0.00,24.23,26.85,30.40,14.38,48.55,1013.70,2031.08,2946.24,2745.01,3130.68,600.09,591.79,41.31,0000 0000 0000 0000 000000
2017-05-07 05:54:22,0.02,1.33,0.00,24.27,26.85,30.41,14.41,48.73,1013.69,2031.07,2945.73,2744.84,3130.03,600.32,592.10,41.36,0000 0000 0000 0000 000000
2017-05-07 05:59:23,0.04,1.33,0.00,24.23,26.86,30.41,14.33,48.76,1013.69,2031.09,2944.98,2744.08,3129.63,599.80,591.67,41.41,0000 0000 0000 0000 000000
2017-05-07 06:04:25,0.03,1.33,0.00,24.28,26.87,30.40,14.29,48.71,1013.69,2031.12,2944.16,2743.99,3129.02,599.75,591.57,41.46,0000 0000 0000 0000 000000
2017-05-07 06:09:26,0.04,1.33,0.00,24.29,26.87,30.39,14.45,48.73,1013.69,2031.09,2943.62,2743.53,3128.51,600.13,591.95,41.51,0000 0000 0000 0000 000000
2017-05-07 06:14:27,0.02,1.34,0.00,24.31,26.87,30.38,14.37,48.72,1013.68,2031.05,2942.75,2743.00,3127.95,600.10,591.70,41.56,0000 0000 0000 0000 000000
2017-05-07 06:19:29,0.04,1.34,0.00,24.38,26.87,30.37,14.38,48.58,1013.67,2031.03,2942.01,2742.69,3127.20,599.78,591.40,41.61,0000 0000 0000 0000 000000
2017-05-07 06:24:30,0.03,1.34,0.00,24.40,26.87,30.37,14.43,48.65,1013.69,2031.04,2941.18,2742.04,3126.87,600.47,591.90,41.66,0000 0000 0000 0000 000000
2017-05-07 06:29:31,0.03,1.34,0.00,24.39,26.86,30.34,14.41,48.52,1013.69,2031.02,2940.45,2741.94,3126.06,600.15,591.68,41.72,0000 0000 0000 0000 000000
2017-05-07 06:34:33,0.04,1.34,0.00,24.36,26.85,30.34,14.40,48.53,1013.69,2031.03,2939.82,2741.24,3125.71,600.10,591.75,41.77,0000 0000 0000 0000 000000
2017-05-07 06:39:34,0.03,1.35,0.00,24.37,26.85,30.36,14.43,48.62,1013.69,2031.07,2939.03,2741.00,3125.03,599.83,591.44,41.82,0000 0000 0000 0000 000000
2017-05-07 06:44:35,0.03,1.35,0.00,24.42,26.85,30.33,14.38,48.63,1013.69,2031.14,2938.23,2740.88,3124.72,599.86,591.31,41.87,0000 0000 0000 0000 000000
2017-05-07 06:49:36,0.05,1.35,0.00,24.39,26.85,30.33,14.34,48.62,1013.69,2031.24,2937.52,2740.15,3124.03,599.84,591.36,41.92,0000 0000 0000 0000 000000
2017-05-07 06:54:38,0.02,1.35,0.00,24.36,26.85,30.30,14.24,48.57,1013.69,2031.16,2936.71,2739.95,3123.47,599.76,591.35,41.97,0000 0000 0000 0000 000000
2017-05-07 06:59:39,0.03,1.35,0.00,24.24,26.85,30.28,14.36,48.57,1013.69,2031.10,2935.96,2739.24,3122.98,599.98,592.00,42.02,0000 0000 0000 0000 000000
2017-05-07 07:04:40,0.04,1.36,0.00,24.24,26.85,30.33,14.28,48.51,1013.69,2031.16,2935.11,2739.00,3122.24,599.91,591.89,42.07,0000 0000 0000 0000 000000
2017-05-07 07:09:41,0.02,1.36,0.00,24.15,26.85,30.30,14.45,48.56,1013.69,2031.07,2934.33,2738.63,3121.86,600.00,591.99,42.12,0000 0000 0000 0000 000000
2017-05-07 07:14:43,0.04,1.36,0.00,24.29,26.85,30.28,14.34,48.65,1013.68,2031.05,2933.63,2738.03,3121.07,600.24,591.98,42.17,0000 0000 0000 0000 000000
2017-05-07 07:19:44,0.02,1.36,0.00,24.28,26.85,30.31,14.33,48.67,1013.69,2031.03,2932.93,2737.89,3120.73,599.68,591.53,42.22,0000 0000 0000 0000 000000
2017-05-07 07:24:45,0.05,1.36,0.00,24.34,26.85,30.31,14.28,48.69,1013.69,2031.02,2932.09,2737.11,3120.03,599.98,591.72,42.27,0000 0000 0000 0000 000000
2017-05-07 07:29:47,0.02,1.36,0.00,24.35,26.85,30.32,14.38,48.61,1013.69,2031.01,2931.44,2736.97,3119.60,599.72,591.34,42.32,0000 0000 0000 0000 000000
2017-05-07 07:34:48,0.04,1.37,0.00,24.38,26.85,30.33,14.33,48.75,1013.66,2031.03,2930.81,2736.46,3119.00,600.05,591.58,42.37,0000 0000 0000 0000 000000
2017-05-07 07:39:49,0.03,1.37,0.00,24.36,26.85,30.32,14.34,48.45,1013.66,2031.03,2930.02,2736.01,3118.33,599.63,591.14,42.42,0000 0000 0000 0000 000000
2017-05-07 07:44:51,0.02,1.37,0.00,24.37,26.85,30.32,14.37,48.72,1013.59,2031.04,2929.26,2735.93,3117.99,599.90,591.32,42.47,0000 0000 0000 0000 000000
2017-05-07 07:49:52,0.05,1.37,0.00,24.36,26.85,30.28,14.37,48.72,1013.53,2031.02,2928.53,2735.15,3117.26,599.85,591.33,42.52,0000 0000 0000 0000 000000
2017-05-07 07:54:54,0.01,1.37,0.00,24.39,26.85,30.30,14.39,48.63,1013.57,2031.03,2927.90,2734.97,3116.92,600.35,591.77,42.57,0000 0000 0000 0000 000000
2017-05-07 07:59:55,0.05,1.38,0.00,24.45,26.85,30.30,14.34,48.58,1013.36,2031.03,2927.06,2734.31,3116.10,600.11,591.36,42.63,0000 0000 0000 0000 000000
2017-05-07 08:04:57,0.02,1.38,0.00,24.45,26.85,30.28,14.34,48.46,1013.27,2031.03,2926.41,2734.01,3115.94,599.92,591.10,42.68,0000 0000 0000 0000 000000
2017-05-07 08:09:58,0.03,1.38,0.00,24.46,26.85,30.29,14.34,48.42,1013.38,2031.04,2925.77,2733.87,3115.14,600.05,591.34,42.73,0000 0000 0000 0000 000000
2017-05-07 08:14:59,0.03,1.38,0.00,24.43,26.85,30.27,14.39,48.57,1013.38,2031.04,2925.03,2733.13,3114.89,599.92,591.08,42.78,0000 0000 0000 0000 000000
2017-05-07 08:20:01,0.03,1.38,0.00,24.42,26.85,30.26,14.37,48.52,1013.41,2031.06,2924.25,2732.99,3114.11,599.97,591.37,42.83,0000 0000 0000 0000 000000
2017-05-07 08:25:02,0.05,1.38,0.00,24.46,26.85,30.27,14.34,48.52,1013.56,2031.06,2923.56,2732.44,3113.75,599.94,591.26,42.88,0000 0000 0000 0000 000000
2017-05-07 08:30:03,0.02,1.39,0.00,24.42,26.85,30.26,14.38,48.67,1013.59,2031.05,2922.82,2732.01,3113.03,599.80,591.22,42.93,0000 0000 0000 0000 000000
2017-05-07 08:35:04,0.04,1.39,0.00,24.47,26.84,30.27,14.38,48.53,1013.44,2031.03,2922.01,2731.68,3112.54,600.19,591.46,42.98,0000 0000 0000 0000 000000
2017-05-07 08:40:06,0.03,1.39,0.00,24.41,26.84,30.25,14.39,48.50,1013.34,2031.02,2921.26,2731.03,3112.00,600.30,591.58,43.03,0000 0000 0000 0000 000000
2017-05-07 08:45:07,0.02,1.39,0.00,24.40,26.84,30.25,14.34,48.41,1013.37,2031.02,2920.71,2730.99,3111.42,599.94,591.22,43.08,0000 0000 0000 0000 000000
2017-05-07 08:50:08,0.04,1.39,0.00,24.42,26.84,30.26,14.31,48.50,1013.35,2031.06,2920.02,2730.42,3111.00,600.01,591.28,43.13,0000 0000 0000 0000 000000
2017-05-07 08:55:09,0.03,1.40,0.00,24.39,26.83,30.25,14.34,48.51,1013.46,2031.05,2919.26,2730.01,3110.48,599.69,590.99,43.18,0000 0000 0000 0000 000000
2017-05-07 09:00:10,0.03,1.40,0.00,24.43,26.83,30.27,14.32,48.61,1013.53,2031.05,2918.63,2729.77,3110.00,599.82,591.27,43.23,0000 0000 0000 0000 000000
2017-05-07 09:05:12,0.04,1.40,0.00,24.46,26.83,30.29,14.30,48.42,1013.50,2031.10,2917.96,2729.11,3109.48,599.88,591.16,43.28,0000 0000 0000 0000 000000
2017-05-07 09:10:13,0.03,1.40,0.00,24.45,26.83,30.25,14.33,48.51,1013.33,2031.14,2917.11,2728.99,3109.00,599.99,591.13,43.33,0000 0000 0000 0000 000000
2017-05-07 09:15:14,0.04,1.40,0.00,24.45,26.82,30.29,14.36,48.36,1013.38,2031.19,2916.58,2728.61,3108.46,599.92,591.20,43.38,0000 0000 0000 0000 000000
2017-05-07 09:20:16,0.03,1.41,0.00,24.38,26.82,30.26,14.34,48.60,1013.24,2031.25,2915.93,2728.03,3108.00,599.67,591.06,43.43,0000 0000 0000 0000 000000
2017-05-07 09:25:17,0.02,1.41,0.00,24.40,26.82,30.26,14.33,48.47,1013.28,2031.21,2915.08,2727.84,3107.41,600.04,591.34,43.48,0000 0000 0000 0000 000000
2017-05-07 09:30:18,0.05,1.41,0.00,24.41,26.82,30.23,14.33,48.44,1013.36,2031.17,2914.25,2727.10,3106.99,599.88,591.28,43.54,0000 0000 0000 0000 000000
2017-05-07 09:35:20,0.02,1.41,0.00,24.35,26.82,30.26,14.35,48.49,1013.31,2031.22,2913.63,2726.98,3106.25,600.32,591.71,43.59,0000 0000 0000 0000 000000
2017-05-07 09:40:21,0.04,1.41,0.00,24.38,26.82,30.25,14.39,48.59,1013.23,2031.24,2912.99,2726.44,3105.94,599.97,591.25,43.64,0000 0000 0000 0000 000000
2017-05-07 09:45:22,0.03,1.41,0.00,24.43,26.82,30.25,14.34,48.47,1013.22,2031.25,2912.14,2726.00,3105.14,599.81,590.90,43.69,0000 0000 0000 0000 000000
2017-05-07 09:50:24,0.03,1.42,0.00,24.39,26.82,30.25,14.42,48.55,1013.21,2031.32,2911.55,2725.75,3104.86,599.82,591.16,43.74,0000 0000 0000 0000 000000
2017-05-07 09:55:25,0.05,1.42,0.00,24.41,26.82,30.24,14.39,48.48,1013.20,2031.34,2910.73,2725.06,3104.07,600.14,591.32,43.79,0000 0000 0000 0000 000000
2017-05-07 10:00:26,0.02,1.42,0.00,24.43,26.82,30.24,14.27,48.52,1013.20,2031.40,2910.00,2724.97,3103.70,599.48,590.66,43.84,0000 0000 0000 0000 000000
2017-05-07 10:05:27,0.03,1.42,0.00,24.41,26.82,30.25,14.39,48.56,1013.21,2031.39,2909.28,2724.34,3103.04,600.11,591.34,43.89,0000 0000 0000 0000 000000
2017-05-07 10:10:28,0.03,1.42,0.00,24.39,26.82,30.24,14.38,48.53,1013.20,2031.20,2908.44,2723.98,3102.37,600.12,591.40,43.94,0000 0000 0000 0000 000000
2017-05-07 10:15:30,0.03,1.43,0.00,24.41,26.81,30.23,14.35,48.35,1013.20,2031.10,2907.71,2723.33,3101.95,600.34,591.50,43.99,0000 0000 0000 0000 000000
2017-05-07 10:20:31,0.04,1.43,0.00,24.41,26.81,30.26,14.36,48.44,1013.20,2031.19,2907.01,2723.01,3101.18,600.03,591.22,44.04,0000 0000 0000 0000 000000
2017-05-07 10:25:32,0.03,1.43,0.00,24.39,26.81,30.24,14.34,48.47,1013.20,2031.26,2906.26,2722.78,3100.95,600.08,591.32,44.09,0000 0000 0000 0000 000000
2017-05-07 10:30:34,0.04,1.43,0.00,24.37,26.80,30.24,14.38,48.59,1013.22,2031.22,2905.61,2722.07,3100.18,600.00,591.22,44.14,0000 0000 0000 0000 000000
2017-05-07 10:35:35,0.03,1.43,0.00,24.38,26.80,30.26,14.34,48.53,1013.21,2031.42,2904.98,2721.99,3099.96,600.00,591.36,44.19,0000 0000 0000 0000 000000
2017-05-07 10:40:37,0.07,1.44,0.00,24.41,26.80,30.26,14.32,48.62,1013.21,2031.62,2904.19,2721.42,3099.21,599.78,591.03,44.24,0000 0000 0000 0000 000000
2017-05-07 10:45:38,0.01,1.44,0.00,24.40,26.80,30.27,14.34,48.50,1013.22,2031.59,2903.49,2721.00,3098.84,599.89,591.10,44.29,0000 0000 0000 0000 000000
2017-05-07 10:50:39,0.02,1.44,0.00,24.41,26.80,30.27,14.38,48.61,1013.22,2031.40,2902.82,2720.61,3098.09,599.81,591.05,44.34,0000 0000 0000 0000 000000
2017-05-07 10:55:40,0.03,1.44,0.00,24.40,26.80,30.25,14.37,48.62,1013.22,2031.40,2902.05,2720.02,3097.77,600.11,591.24,44.39,0000 0000 0000 0000 000000
2017-05-07 11:00:41,0.03,1.44,0.00,24.39,26.80,30.23,14.37,48.60,1013.21,2031.46,2901.40,2719.93,3097.05,599.96,591.21,44.44,0000 0000 0000 0000 000000
2017-05-07 11:05:43,0.04,1.45,0.00,24.36,26.80,30.22,14.40,48.72,1013.20,2031.48,2900.74,2719.22,3096.63,600.24,591.54,44.49,0000 0000 0000 0000 000000
2017-05-07 11:10:44,0.03,1.45,0.00,24.43,26.80,30.23,14.40,48.74,1013.20,2031.49,2900.01,2718.99,3096.02,600.29,591.46,44.55,0000 0000 0000 0000 000000
2017-05-07 11:15:45,0.05,1.45,0.00,24.39,26.80,30.21,14.37,48.67,1013.20,2031.37,2899.19,2718.48,3095.42,600.26,591.61,44.60,0000 0000 0000 0000 000000
2017-05-07 11:20:47,0.03,1.45,0.00,24.38,26.79,30.21,14.39,48.76,1013.20,2031.41,2898.57,2718.02,3095.00,600.00,591.27,44.65,0000 0000 0000 0000 000000
2017-05-07 11:25:48,0.03,1.45,0.00,24.40,26.78,30.20,14.32,48.68,1013.20,2031.61,2897.96,2717.95,3094.50,599.88,591.17,44.70,0000 0000 0000 0000 000000
2017-05-07 11:30:49,0.06,1.46,0.00,24.36,26.77,30.22,14.34,48.60,1013.20,2031.76,2897.12,2717.32,3094.01,599.68,591.09,44.75,0000 0000 0000 0000 000000
2017-05-07 11:35:51,0.03,1.46,0.00,24.37,26.77,30.21,14.35,48.58,1013.20,2031.82,2896.53,2717.01,3093.52,599.98,591.29,44.80,0000 0000 0000 0000 000000
2017-05-07 11:40:52,0.02,1.46,0.00,24.34,26.77,30.21,14.40,48.63,1013.20,2031.91,2895.97,2716.85,3093.02,600.15,591.52,44.85,0000 0000 0000 0000 000000
2017-05-07 11:45:54,0.05,1.46,0.00,24.38,26.77,30.21,14.37,48.57,1013.20,2031.88,2895.17,2716.13,3092.62,600.07,591.34,44.90,0000 0000 0000 0000 000000
2017-05-07 11:50:55,0.02,1.46,0.00,24.34,26.76,30.18,14.38,48.61,1013.20,2031.93,2894.57,2716.00,3092.03,599.91,591.21,44.95,0000 0000 0000 0000 000000
2017-05-07 11:55:56,0.02,1.46,0.00,24.35,26.75,30.19,14.34,48.38,1013.20,2031.94,2893.98,2715.77,3091.74,600.00,591.33,45.00,0000 0000 0000 0000 000000
2017-05-07 12:00:58,0.04,1.47,0.00,24.37,26.75,30.20,14.37,48.52,1013.20,2031.94,2893.17,2715.05,3091.04,600.16,591.45,45.05,0000 0000 0000 0000 000000
2017-05-07 12:05:59,0.02,1.47,0.00,24.35,26.75,30.21,14.33,48.58,1013.20,2031.95,2892.60,2714.97,3090.72,599.66,590.93,45.10,0000 0000 0000 0000 000000
2017-05-07 12:11:00,0.04,1.47,0.00,24.33,26.75,30.23,14.34,48.59,1013.20,2031.94,2891.82,2714.31,3090.02,599.65,590.93,45.15,0000 0000 0000 0000 000000
2017-05-07 12:16:01,0.03,1.47,0.00,24.26,26.74,30.18,14.35,48.51,1013.20,2031.95,2891.03,2714.00,3089.42,599.75,591.27,45.20,0000 0000 0000 0000 000000
2017-05-07 12:21:03,0.04,1.47,0.00,24.31,26.72,30.18,14.35,48.55,1013.20,2031.98,2890.36,2713.61,3089.00,599.74,591.00,45.25,0000 0000 0000 0000 000000
2017-05-07 12:26:04,0.04,1.48,0.00,24.31,26.72,30.20,14.36,48.60,1013.20,2031.96,2889.55,2713.03,3088.25,599.84,591.26,45.30,0000 0000 0000 0000 000000
2017-05-07 12:31:05,0.03,1.48,0.00,24.30,26.72,30.20,14.37,48.60,1013.20,2031.96,2888.75,2712.77,3087.89,599.67,591.20,45.35,0000 0000 0000 0000 000000
2017-05-07 12:36:06,0.04,1.48,0.00,24.31,26.72,30.19,14.34,48.42,1013.20,2031.98,2887.94,2712.06,3087.08,599.97,591.38,45.40,0000 0000 0000 0000 000000
2017-05-07 12:41:07,0.05,1.48,0.00,24.30,26.72,30.19,14.34,48.58,1013.20,2031.98,2887.03,2711.74,3086.50,600.01,591.56,45.46,0000 0000 0000 0000 000000
2017-05-07 12:46:09,0.04,1.49,0.00,24.27,26.71,30.17,14.40,48.46,1013.19,2031.99,2886.09,2711.03,3085.87,600.15,591.62,45.51,0000 0000 0000 0000 000000
2017-05-07 12:51:10,0.06,1.49,0.00,24.29,26.70,30.17,14.32,48.55,1013.19,2031.98,2885.16,2710.47,3085.05,599.86,591.30,45.56,0000 0000 0000 0000 000000
2017-05-07 12:56:11,0.04,1.49,0.00,24.32,26.70,30.17,14.36,48.50,1013.20,2031.99,2884.30,2710.00,3084.53,600.08,591.48,45.61,0000 0000 0000 0000 000000